Location: Hains Lake
(37.8540°N, 99.8578°W)
Time: 23:04:10
(UTC+00:00)

Courier 1B Rocket - Pass Details

Date: 10 December 2021
Orbit: 920 x 1202 km, 28.2° (Epoch: 18 January)

Event Time Altitude Azimuth Distance (km) Brightness Sun altitude
Rises 02:07:38 0° 227° (SW) 3,926 8.9 -32.2°
Reaches altitude 10° 02:11:01 10° 214° (SW) 2,920 7.9 -32.9°
Enters shadow 02:15:03 23° 182° (S) 2,073 6.7 -33.7°
